[[{"header":{"parameterUnit":"m.s-1","parameterCategory":1,"la1":30.2991,"la2":30.254,"lo1":-89.0895,"lo2":-89.0444,"dy":0.0017,"dx":0.0017,"nx":28,"ny":28,"refTime":"2025-08-28T21:00:00:Z","depth":0,"parameterNumber":2,"parameterNumberName":"U-component_of_WINDS"},"data":[0,0,0,0,0,0,0,0,0,0,0,0,0,0,0,0,0,0,0,0,0,0,0,0,0,0,0,0,0,0,0,0,0,0,0,0,0,0,0,0,0,0,0,0,0,0,0,0,0,0,0,0,0,0,0,0,0,0,-2.6308,-2.631,0,-2.6509,-2.6511,-2.6514,-2.6625,-2.6625,-2.6625,-2.6626,-2.6822,-2.6827,-2.6832,0,0,0,0,0,0,0,0,0,0,0,0,0,-2.6011,-2.6016,-2.6308,-2.631,-2.6313,-2.6509,-2.6512,-2.6514,-2.6625,-2.6625,-2.6625,-2.6626,-2.6821,-2.6827,-2.6832,0,0,0,0,0,0,0,0,0,0,0,0,0,-2.6169,-2.6018,-2.6307,-2.6392,-2.6401,-2.6508,-2.6512,-2.6515,-2.6624,-2.6625,-2.6625,-2.6626,-2.6819,-2.6826,-2.6833,-2.6869,0,0,-2.6856,-2.6859,0,0,0,0,0,0,0,0,-2.6159,-2.6179,-2.6377,-2.6386,-2.6397,-2.6543,-2.6479,-2.6633,-2.6624,-2.6539,-2.6626,-2.6626,-2.6728,-2.6743,-2.678,-2.6878,-2.6887,-2.6857,-2.6861,-2.6864,-2.6866,0,0,0,0,0,0,0,-2.6148,-2.6171,-2.6387,-2.6379,-2.6392,-2.6417,-2.644,-2.6509,-2.6628,-2.6547,-2.6555,-2.6578,-2.6734,-2.6772,-2.6785,-2.689,-2.6856,-2.6863,-2.6867,-2.687,-2.7028,-2.7028,0,0,0,0,0,0,-2.6125,-2.6161,-2.6381,-2.6393,-2.6277,-2.6422,-2.6448,-2.6495,-2.6628,-2.6649,-2.6578,-2.6583,-2.6759,-2.6776,-2.6792,-2.6843,-2.6864,-2.6871,-2.6875,-2.7028,-2.7028,-2.7028,0,0,0,0,0,0,-2.6118,-2.6144,-2.6373,-2.628,-2.6311,-2.6427,-2.6479,-2.6499,-2.6538,-2.6651,-2.6672,-2.6595,-2.676,-2.6782,-2.685,-2.6852,-2.6874,-2.6881,-2.7028,-2.7028,-2.7028,-2.6945,0,0,0,0,0,0,-2.6109,-2.6141,-2.6157,-2.628,-2.6316,-2.6429,-2.6479,-2.6502,-2.6551,-2.656,-2.6674,-2.6693,-2.6762,-2.6838,-2.6857,-2.6862,-2.6887,-2.7029,-2.7028,-2.7028,-2.6948,-2.6942,-2.6937,0,0,0,0,0,-2.6098,-2.6124,-2.6157,-2.6183,-2.6339,-2.6429,-2.6449,-2.6532,-2.6551,-2.6567,-2.664,-2.6689,-2.6849,-2.6844,-2.6867,-2.6874,-2.7029,-2.7028,-2.7028,-2.6951,-2.6943,-2.6937,0,0,0,0,0,0,-2.5995,-2.6141,-2.618,-2.6246,-2.6325,-2.6448,-2.6471,-2.6521,-2.6593,-2.6598,-2.6694,-2.6718,-2.6777,-2.6832,-2.6825,-2.6916,-2.6944,-2.6948,-2.6877,-2.6871,-2.6865,-2.685,-2.6893,0,0,0,0,0,-2.598,-2.6044,-2.6167,-2.6213,-2.6251,-2.6354,-2.6396,-2.6453,-2.6537,-2.657,-2.6648,-2.6725,-2.6793,-2.6835,-2.6904,-2.6957,-2.6983,-2.6973,-2.6967,-2.6962,-2.6963,-2.6996,-2.6993,-2.7026,-2.7026,-2.7026,0,0,-2.595,-2.6038,-2.6071,-2.6195,-2.6263,-2.6324,-2.6381,-2.6443,-2.6489,-2.6578,-2.6649,-2.6708,-2.6801,-2.6862,-2.6892,-2.6909,-2.696,-2.6961,-2.6956,-2.6961,-2.6995,-2.6991,-2.6988,-2.7025,-2.7025,-2.7026,0,0,-2.5925,-2.5999,-2.6046,-2.6113,-2.6216,-2.6285,-2.6296,-2.6412,-2.6456,-2.6529,-2.6597,-2.6651,-2.6766,-2.6829,-2.6876,-2.6877,-2.6925,-2.6897,-2.6866,-2.6896,-2.6894,-2.6892,-2.6892,-2.6891,-2.6898,-2.6898,-2.6898,0,-2.5873,-2.5972,-2.6063,-2.6123,-2.6174,-2.6262,-2.6309,-2.6368,-2.6486,-2.6519,-2.6538,-2.6684,-2.6752,-2.683,-2.683,-2.6865,-2.688,-2.6884,-2.6887,-2.6886,-2.6886,-2.6887,-2.6887,-2.6894,-2.6895,-2.6895,-2.6895,0,-2.5903,-2.5969,-2.5995,-2.6111,-2.6166,-2.6218,-2.6315,-2.6359,-2.6411,-2.6477,-2.6549,-2.6634,-2.6722,-2.6745,-2.6795,-2.6829,-2.6836,-2.687,-2.69,-2.6877,-2.688,-2.6881,-2.6888,-2.689,-2.6891,-2.6892,0,0,-2.5817,-2.5985,-2.5993,-2.6047,-2.6167,-2.6219,-2.6275,-2.6365,-2.64,-2.6479,-2.6527,-2.6623,-2.6655,-2.6708,-2.6766,-2.6793,-2.6788,-2.6824,-2.6827,-2.6814,-2.6831,-2.6804,-2.6804,-2.6821,-2.6821,-2.6822,-2.6823,0,-2.581,-2.5919,-2.6003,-2.6078,-2.614,-2.6225,-2.6273,-2.6351,-2.6414,-2.6474,-2.6543,-2.6609,-2.6647,-2.668,-2.671,-2.6782,-2.6793,-2.6784,-2.6865,-2.6866,-2.6839,-2.6805,-2.6778,-2.6775,-2.6825,-2.6825,-2.6825,0,-2.5816,-2.5896,-2.5978,-2.6093,-2.6122,-2.6165,-2.6254,-2.6311,-2.64,-2.6444,-2.6505,-2.6566,-2.6626,-2.6652,-2.6736,-2.6728,-2.6766,-2.6806,-2.6808,-2.6818,-2.6844,-2.6813,-2.6776,-2.6775,-2.6827,-2.6827,-2.6827,0,-2.5745,-2.5872,-2.5939,-2.5982,-2.6118,-2.6146,-2.6203,-2.6294,-2.6342,-2.6419,-2.6451,-2.6532,-2.6576,-2.6637,-2.6717,-2.6728,-2.6793,-2.6824,-2.6829,-2.6827,-2.6838,-2.6836,-2.6805,-2.6863,-2.6863,-2.6863,-2.6863,0,-2.5728,-2.5775,-2.5909,-2.5949,-2.6004,-2.61,-2.615,-2.6214,-2.6294,-2.6347,-2.6424,-2.6471,-2.6575,-2.6634,-2.6697,-2.6757,-2.6776,-2.6811,-2.6827,-2.6805,-2.68,-2.683,-2.6832,-2.6863,-2.6863,-2.6863,-2.6863,0,-2.5657,-2.575,-2.5827,-2.5951,-2.5983,-2.6018,-2.6122,-2.6164,-2.6232,-2.6297,-2.6318,-2.6424,-2.6498,-2.6585,-2.6685,-2.6728,-2.6782,-2.6806,-2.6753,-2.6762,-2.6762,-2.676,-2.6748,-2.6751,-2.6807,-2.6806,-2.6806,0,-2.564,-2.5679,-2.5808,-2.585,-2.5907,-2.5973,-2.6024,-2.6119,-2.6169,-2.6274,-2.6302,-2.6383,-2.6452,-2.6566,-2.665,-2.6727,-2.6753,-2.6744,-2.6765,-2.6741,-2.6753,-2.6749,-2.6753,-2.6737,-2.6736,-2.6736,-2.6735,0,-2.5599,-2.5643,-2.5715,-2.5804,-2.5863,-2.5936,-2.6012,-2.6042,-2.6152,-2.6203,-2.6281,-2.6335,-2.644,-2.6518,-2.6607,-2.6664,-2.6717,-2.6728,-2.6733,-2.6709,-2.6677,-2.6694,-2.6736,-2.6727,-2.6728,-2.6729,-2.6729,-2.6729,-2.5555,-2.5593,-2.5691,-2.5768,-2.5836,-2.5906,-2.5952,-2.6027,-2.6095,-2.619,-2.6241,-2.6318,-2.6407,-2.6532,-2.6587,-2.6647,-2.6665,-2.6672,-2.6674,-2.6674,-2.6667,-2.6668,-2.6663,-2.6663,-2.6664,-2.6664,-2.6664,0,-2.5517,-2.5585,-2.5656,-2.5761,-2.5822,-2.5871,-2.5958,-2.6005,-2.6073,-2.6152,-2.622,-2.631,-2.6386,-2.6477,-2.656,-2.659,-2.6616,-2.6608,-2.6606,-2.6618,-2.6646,-2.6634,-2.6585,-2.6585,-2.6585,-2.6585,-2.6585,-2.6585,-2.5505,-2.5573,-2.5629,-2.5731,-2.5798,-2.5876,-2.5922,-2.5986,-2.605,-2.6148,-2.6214,-2.6274,-2.6358,-2.6447,-2.6519,-2.6544,-2.657,-2.6554,-2.6585,-2.6609,-2.6616,-2.6623,-2.6611,-2.6559,-2.6559,-2.6553,-2.6553,-2.6552]},{"header":{"parameterUnit":"m.s-1","parameterCategory":1,"la1":30.2991,"la2":30.254,"lo1":-89.0895,"lo2":-89.0444,"dy":0.0017,"dx":0.0017,"nx":28,"ny":28,"refTime":"2025-08-28T21:00:00:Z","depth":0,"parameterNumber":3,"parameterNumberName":"V-component_of_WINDS"},"data":[0,0,0,0,0,0,0,0,0,0,0,0,0,0,0,0,0,0,0,0,0,0,0,0,0,0,0,0,0,0,0,0,0,0,0,0,0,0,0,0,0,0,0,0,0,0,0,0,0,0,0,0,0,0,0,0,0,0,0.4079,0.4076,0,0.3792,0.3788,0.3785,0.3575,0.3573,0.3571,0.357,0.3274,0.3267,0.3261,0,0,0,0,0,0,0,0,0,0,0,0,0,0.4444,0.4439,0.4079,0.4075,0.4072,0.3792,0.3788,0.3784,0.3575,0.3573,0.3571,0.3569,0.3276,0.3268,0.3261,0,0,0,0,0,0,0,0,0,0,0,0,0,0.4234,0.4437,0.408,0.3934,0.3918,0.3793,0.3788,0.3783,0.3576,0.3573,0.357,0.3568,0.3278,0.3269,0.326,0.3256,0,0,0.3231,0.3227,0,0,0,0,0,0,0,0,0.4247,0.4221,0.3959,0.3944,0.3926,0.3716,0.3808,0.3606,0.3576,0.3706,0.357,0.3566,0.3423,0.3402,0.3353,0.3242,0.3229,0.323,0.3225,0.3221,0.3218,0,0,0,0,0,0,0,0.4261,0.4232,0.3965,0.3955,0.3935,0.3882,0.3849,0.3769,0.3583,0.3694,0.3678,0.3647,0.3413,0.3363,0.3345,0.3225,0.3231,0.3222,0.3217,0.3213,0.3095,0.3097,0,0,0,0,0,0,0.4299,0.4246,0.3974,0.3956,0.4083,0.3878,0.3841,0.3786,0.3583,0.355,0.365,0.3638,0.338,0.3356,0.3334,0.3315,0.3221,0.3212,0.3207,0.3092,0.3095,0.3098,0,0,0,0,0,0,0.4308,0.4277,0.3986,0.4097,0.4056,0.3874,0.3814,0.3782,0.3731,0.355,0.3515,0.3633,0.3377,0.3347,0.3277,0.3302,0.3208,0.3199,0.309,0.3093,0.3097,0.3279,0,0,0,0,0,0,0.4319,0.4281,0.4278,0.4098,0.4051,0.3935,0.3816,0.3778,0.3716,0.3699,0.3524,0.3493,0.3373,0.3292,0.3268,0.3287,0.3192,0.3086,0.3091,0.3096,0.327,0.3288,0.3304,0,0,0,0,0,0.4333,0.4341,0.4279,0.4248,0.4044,0.3937,0.3909,0.3771,0.3719,0.3714,0.3597,0.3498,0.3304,0.3286,0.3257,0.3275,0.3084,0.309,0.3095,0.3262,0.3285,0.3304,0,0,0,0,0,0,0.4528,0.4315,0.4244,0.4194,0.4086,0.3902,0.3891,0.38,0.3703,0.3691,0.3523,0.3485,0.3433,0.3346,0.3331,0.326,0.3181,0.3181,0.3318,0.3338,0.3355,0.3377,0.3184,0,0,0,0,0,0.4565,0.4497,0.4314,0.4288,0.4237,0.4075,0.4023,0.3926,0.3806,0.3759,0.3636,0.3524,0.3436,0.3382,0.3292,0.3257,0.3215,0.3254,0.3272,0.3286,0.3288,0.3262,0.3277,0.3116,0.3116,0.3116,0,0,0.4642,0.4517,0.4484,0.4324,0.4228,0.4161,0.4037,0.3971,0.3919,0.3748,0.3674,0.3582,0.3444,0.3391,0.3362,0.3318,0.3324,0.3293,0.3307,0.33,0.3269,0.3285,0.3299,0.312,0.3119,0.3119,0,0,0.4746,0.4645,0.4611,0.4518,0.4375,0.4267,0.426,0.4089,0.4021,0.3945,0.3815,0.3751,0.3604,0.3512,0.3446,0.3516,0.3421,0.3491,0.358,0.3557,0.357,0.358,0.3604,0.3615,0.3493,0.3494,0.3494,0,0.4858,0.4752,0.4606,0.4547,0.448,0.4324,0.4288,0.4205,0.404,0.3997,0.395,0.3763,0.366,0.3583,0.36,0.3552,0.3537,0.3509,0.358,0.3589,0.3596,0.3618,0.3627,0.3503,0.3502,0.3501,0.35,0,0.4897,0.4825,0.4815,0.4661,0.4593,0.4546,0.4392,0.4341,0.4251,0.4148,0.4072,0.3942,0.3823,0.3798,0.3708,0.3708,0.3685,0.3612,0.3529,0.3624,0.3641,0.3648,0.3517,0.3513,0.351,0.3508,0,0,0.5115,0.488,0.4879,0.4807,0.4638,0.4579,0.4526,0.4409,0.4369,0.426,0.421,0.4091,0.4022,0.3947,0.3846,0.3826,0.3889,0.3753,0.3748,0.3783,0.3879,0.3936,0.3947,0.3825,0.3826,0.3827,0.3891,0,0.5192,0.5088,0.4955,0.4895,0.4827,0.4678,0.463,0.4522,0.4424,0.4351,0.4242,0.416,0.4076,0.4029,0.4003,0.3887,0.3906,0.388,0.3776,0.3774,0.3815,0.3956,0.4015,0.4081,0.3897,0.3898,0.3898,0,0.5268,0.5168,0.5103,0.4939,0.4905,0.4866,0.4748,0.4681,0.4554,0.4484,0.4402,0.4293,0.4228,0.4156,0.4064,0.405,0.3999,0.3936,0.3935,0.3919,0.3842,0.3944,0.4099,0.411,0.3907,0.3907,0.3906,0,0.5433,0.5282,0.5223,0.5166,0.4974,0.4949,0.4868,0.4739,0.4678,0.4575,0.4534,0.4426,0.4366,0.4284,0.4149,0.4109,0.4071,0.3988,0.4011,0.4015,0.4009,0.4011,0.4159,0.3979,0.3979,0.3978,0.3978,0,0.5532,0.5498,0.5294,0.5258,0.5215,0.5062,0.5023,0.4928,0.4815,0.4757,0.4621,0.4569,0.4394,0.4322,0.4216,0.4155,0.413,0.4071,0.4043,0.4082,0.409,0.4047,0.4038,0.3981,0.398,0.398,0.3979,0,0.5709,0.5571,0.5497,0.5322,0.5277,0.5253,0.5102,0.5061,0.4956,0.4884,0.4859,0.4694,0.4601,0.4459,0.4324,0.4252,0.421,0.4164,0.4253,0.4236,0.4267,0.4267,0.4391,0.44,0.4217,0.4219,0.4221,0,0.5781,0.5751,0.5573,0.5525,0.5449,0.5373,0.531,0.5159,0.5099,0.4953,0.4929,0.4827,0.4736,0.4596,0.4464,0.436,0.431,0.4361,0.4293,0.4334,0.431,0.4313,0.4309,0.4377,0.438,0.4382,0.4384,0,0.5924,0.5857,0.5772,0.5664,0.5593,0.55,0.54,0.5368,0.5195,0.5135,0.5039,0.497,0.4832,0.4732,0.461,0.4525,0.4426,0.4406,0.4406,0.4446,0.4498,0.447,0.4296,0.4404,0.4402,0.44,0.4399,0.4398,0.6049,0.6015,0.5885,0.5795,0.5704,0.5614,0.5567,0.5457,0.5375,0.5252,0.5167,0.5077,0.495,0.4776,0.4697,0.4624,0.4581,0.4581,0.458,0.4582,0.4597,0.4512,0.4601,0.46,0.46,0.4599,0.4598,0,0.6184,0.6093,0.6012,0.5877,0.5806,0.572,0.5605,0.5551,0.5474,0.5365,0.5279,0.517,0.5072,0.4933,0.4824,0.4792,0.4744,0.4769,0.4769,0.4751,0.4642,0.4653,0.481,0.481,0.481,0.481,0.481,0.481,0.6246,0.6184,0.6103,0.5995,0.5903,0.5814,0.5756,0.5672,0.5584,0.5469,0.5387,0.5297,0.5175,0.5057,0.4964,0.4925,0.4891,0.4931,0.4878,0.4778,0.4759,0.4741,0.475,0.4925,0.4925,0.4993,0.4994,0.4994]}]]